Regional Weather Roundup
Issued by NWS

Home | Current Version | Previous Version | Text Only | Print | Product List | Glossary Off
Versions: 1 2 3 4 5 6 7 8 9 10 11 12 13 14 15 16 17 18 19 20 21 22 23 24 25 26 27 28 29 30 31 32 33 34 35 36 37 38 39 40 41 42 43 44 45 46 47 48 49 50

000
ASUS44 KMEG 042110
RWRTN
TENNESSEE HOURLY STATE WEATHER ROUNDUP
NATIONAL WEATHER SERVICE MEMPHIS TN
400 PM CDT MON MAY 04 2015

TNZ002-004-019-021-049-052-054-088>092-042200-
WEST TENNESSEE

CITY           SKY/WX    TMP DP  RH WIND       PRES   REMARKS
MEMPHIS INTL   MOSUNNY   83  49  30 CALM      30.16F
NWS MEMPHIS      N/A     85 N/A N/A MISG        N/A
JACKSON        SUNNY     83  51  33 S9        30.17F
DYERSBURG      SUNNY     84  48  28 S12       30.16F
PARIS          MOSUNNY   79  54  41 SW9       30.18F
LEXINGTON      SUNNY     81  52  36 SW12      30.18F
$$

TNZ008-025-027-028-033-062-065-066-042200-
NORTH MIDDLE TENNESSEE

CITY           SKY/WX    TMP DP  RH WIND       PRES   REMARKS
NASHVILLE      PTSUNNY   83  52  34 S8        30.19F
CLARKSVILLE    PTSUNNY   80  55  42 SW12      30.18F
SMYRNA         PTSUNNY   80  54  40 S7        30.21F
COOKEVILLE     SUNNY     82  54  36 VRB5      30.22F
CROSSVILLE     MOSUNNY   76  47  35 S3        30.26F
$$

TNZ061-075-076-078-094-096-097-042200-
SOUTH MIDDLE TENNESSEE

CITY           SKY/WX    TMP DP  RH WIND       PRES   REMARKS
FAYETTEVILLE     N/A     79  52  38 S6        30.23F
TULLAHOMA      MOSUNNY   79  48  34 S7        30.24F
WINCHESTER     MOSUNNY   81  52  36 SE3       30.23F
MCMINNVILLE    SUNNY     81  54  39 SW6       30.23F
COLUMBIA       MOSUNNY   81  55  41 SE6       30.19F
SHELBYVILLE    SUNNY     82  57  42 SE6       30.23F
$$

TNZ017-018-042-046-047-042200-
NORTHEAST TENNESSEE

CITY           SKY/WX    TMP DP  RH WIND       PRES   REMARKS
TRI CITIES     MOSUNNY   80  48  32 W7        30.25F
ELIZABETHTON   CLEAR     79  48  34 SW10      30.25F
$$

TNZ012-013-036-069-073-074-042200-
CENTRAL EAST TENNESSEE

CITY           SKY/WX    TMP DP  RH WIND       PRES   REMARKS
KNOXVILLE      MOSUNNY   80  48  32 W10       30.22F
OAK RIDGE      SUNNY     83  46  27 SW8       30.24F
GATLINBURG     PTCLDY    82  48  30 NW8       30.22F
MORRISTOWN     CLEAR     81  50  34 W9        30.25F
$$

TNZ083-085-099-042200-
SOUTHEAST TENNESSEE

CITY           SKY/WX    TMP DP  RH WIND       PRES   REMARKS
CHATTANOOGA    MOSUNNY   80  48  32 VRB6      30.23F
$$

SKY/WX REPORTED AS FAIR MEANS FEW OR NO CLOUDS BELOW
12 THOUSAND FEET.



USA.gov is the U.S. government's official web portal to all federal, state and local government web resources and services.